Regional Weather Roundup
Issued by NWS

Home | Current Version | Previous Version | Text Only | Print | Product List | Glossary On
Versions: 1 2 3 4 5 6 7 8 9 10 11 12 13 14 15 16 17 18 19 20 21 22 23 24 25 26 27 28 29 30 31 32 33 34 35 36 37 38 39 40 41 42 43 44 45 46 47 48 49 50
000
ASUS43 KOAX 100803
RWRNE

WEATHER ROUNDUP FOR NEBRASKA
NATIONAL WEATHER SERVICE OMAHA NE
300 AM CDT FRI JUL 10 2020

NOTES: SATELLITE DATA IS BEING USED TO AUGMENT CLOUD COVER ABOVE
       12000 FEET.
       "FAIR" INDICATES FEW OR NO CLOUDS BELOW 12,000 FEET WITH NO
       SIGNIFICANT WEATHER AND/OR OBSTRUCTIONS TO VISIBILITY.


NEZ001>004-019>022-054>056-100900-
NEBRASKA PANHANDLE

CITY           SKY/WX    TMP DP  RH WIND       PRES   REMARKS
SCOTTSBLUFF    MOCLDY    63  56  78 SE18      30.10S
ALLIANCE       CLEAR     61  51  70 MISG      30.10S
CHADRON        CLEAR     60  55  83 N7        30.06R
GORDON         FAIR      58  52  79 CALM      30.08R
KIMBALL        CLOUDY    66  64  93 SE17G24   30.16S
SIDNEY         MOCLDY    60  52  74 SE16G28   30.13F
$$

NEZ057>060-069>072-079>082-100900-
SOUTHWEST NEBRASKA

CITY           SKY/WX    TMP DP  RH WIND       PRES   REMARKS
NORTH PLATTE   CLOUDY    67  55  65 SE8       30.07R
IMPERIAL       MOCLDY    65  55  70 MISG      30.14F
LEXINGTON      CLOUDY    66  59  78 S17       30.07R
MCCOOK         MOCLDY    68  58  70 E14       30.10F
OGALLALA       PTCLDY    62  54  74 CALM      30.12F
$$

NEZ005>010-023>029-035>040-094-100900-
NORTH CENTRAL NEBRASKA

CITY           SKY/WX    TMP DP  RH WIND       PRES   REMARKS
VALENTINE      PTCLDY    66  60  81 S8        30.02S
AINSWORTH      PTCLDY    66  64  91 SW3       30.02S
BROKEN BOW     CLOUDY    75  49  39 S13G21    30.00R
O`NEILL        CLOUDY    71  64  78 SE7       30.00F
ORD            CLOUDY    74  57  55 S14       29.94F
THEDFORD       MOCLDY    69  53  55 SW10      30.04S
$$

NEZ041-046>049-061>064-073>077-083>087-100900-
SOUTH CENTRAL NEBRASKA

CITY           SKY/WX    TMP DP  RH WIND       PRES   REMARKS
GRAND ISLAND   CLOUDY    72  67  84 W13       30.11R
AURORA         MOCLDY    70  68  93 W5        30.08R
HASTINGS       CLOUDY    69  66  90 W12       30.14R
HEBRON         PTCLDY    67  65  94 CALM      30.06S
HOLDREGE       TSTM      67  62  84 SW3       30.10F
KEARNEY        TSTM      65  61  87 SE20      30.06F
YORK           MOCLDY    68  68 100 CALM      30.05S
$$

NEZ011>018-030>034-042>045-100900-
NORTHEAST NEBRASKA

CITY           SKY/WX    TMP DP  RH WIND       PRES   REMARKS
NORFOLK        CLOUDY    69  63  81 CALM      30.02F
ALBION         CLOUDY    71  67  89 S5        30.02F
BLAIR          CLEAR     69  65  88 CALM      30.01F
COLUMBUS       MOCLDY    69  68  96 CALM      30.03F
FREMONT        PTCLDY    68  67  99 NW3       30.01S
TEKAMAH        PTCLDY    64  62  93 S3        30.00R
WAYNE          MOCLDY    65  63  94 SW5       30.02S
$$

NEZ050>053-065>068-078-088>093-100900-
SOUTHEAST NEBRASKA

CITY           SKY/WX    TMP DP  RH WIND       PRES   REMARKS
LINCOLN        CLEAR     69  66  90 CALM      30.02S
OMAHA EPPLEY   PTCLDY    71  67  87 E3        30.00S
BEATRICE       CLEAR     66  65  96 CALM      30.04R
FALLS CITY     CLEAR     66  65  96 W5        30.00R
NEBRASKA CITY  CLEAR     68  68  99 W7        30.01S
PLATTSMOUTH    CLEAR     69  64  85 W3        30.01S
$$

NEZ044-045-051>053-067-100900-
OMAHA AREA

CITY           SKY/WX    TMP DP  RH WIND       PRES   REMARKS
OMAHA EPPLEY   PTCLDY    71  67  87 E3        30.00S
BLAIR          CLEAR     69  65  88 CALM      30.01F
FREMONT        PTCLDY    68  67  99 NW3       30.01S
MILLARD        CLEAR     69  66  90 CALM      30.00F
OFFUTT AFB     CLEAR     62  61  97 CALM      29.99F
PLATTSMOUTH    CLEAR     69  64  85 W3        30.01S
WAHOO          FAIR      67  67 100 CALM      30.01F
$$



USA.gov is the U.S. government's official web portal to all federal, state and local government web resources and services.